Time,TemperatureF,DewpointF,PressureIn,WindDirection,WindDirectionDegrees,WindSpeedMPH,WindSpeedGustMPH,Humidity,HourlyPrecipIn,Conditions,Clouds,dailyrainin,SoftwareType,DateUTC
2013-05-09 00:02:00,63.0,59.0,29.88,North,360,0.0,0.0,88,0.02,,,0.07,,2013-05-09 05:02:00,
2013-05-09 00:12:00,62.0,59.0,29.87,North,360,0.0,1.0,90,0.01,,,0.07,,2013-05-09 05:12:00,
2013-05-09 00:22:00,62.0,59.0,29.87,North,360,0.0,1.0,90,0.01,,,0.07,,2013-05-09 05:22:00,
2013-05-09 00:32:00,62.0,59.0,29.87,North,360,0.0,1.0,90,0.01,,,0.07,,2013-05-09 05:32:00,
2013-05-09 00:42:00,62.0,59.0,29.87,SSW,201,1.0,2.0,90,0.00,,,0.07,,2013-05-09 05:42:00,
2013-05-09 00:52:00,62.0,59.0,29.87,SSW,201,1.0,2.0,90,0.00,,,0.07,,2013-05-09 05:52:00,
2013-05-09 01:02:00,62.0,59.0,29.87,SSW,201,1.0,2.0,90,0.00,,,0.07,,2013-05-09 06:02:00,
2013-05-09 01:12:00,62.0,58.0,29.88,South,181,0.0,2.0,87,0.03,,,0.10,,2013-05-09 06:12:00,
2013-05-09 01:21:00,62.0,58.0,29.88,South,181,0.0,2.0,87,0.03,,,0.10,,2013-05-09 06:21:00,
2013-05-09 01:32:00,62.0,58.0,29.88,South,181,0.0,2.0,87,0.03,,,0.10,,2013-05-09 06:32:00,
2013-05-09 01:42:00,61.0,58.0,29.88,North,360,0.0,0.0,90,0.05,,,0.12,,2013-05-09 06:42:00,
2013-05-09 01:52:00,61.0,58.0,29.88,North,360,0.0,0.0,90,0.05,,,0.12,,2013-05-09 06:52:00,
2013-05-09 02:01:00,61.0,58.0,29.88,North,360,0.0,0.0,90,0.05,,,0.12,,2013-05-09 07:01:00,
2013-05-09 02:12:00,60.0,57.0,29.85,ESE,105,1.0,1.0,90,0.05,,,0.15,,2013-05-09 07:12:00,
2013-05-09 02:21:00,60.0,57.0,29.85,ESE,105,1.0,1.0,90,0.05,,,0.15,,2013-05-09 07:21:00,
2013-05-09 02:32:00,60.0,57.0,29.85,ESE,105,1.0,1.0,90,0.05,,,0.15,,2013-05-09 07:32:00,
2013-05-09 02:43:00,60.0,57.0,29.86,North,360,0.0,0.0,90,0.03,,,0.15,,2013-05-09 07:43:00,
2013-05-09 02:52:00,60.0,57.0,29.86,North,360,0.0,0.0,90,0.03,,,0.15,,2013-05-09 07:52:00,
2013-05-09 03:02:00,60.0,57.0,29.86,North,360,0.0,0.0,90,0.03,,,0.15,,2013-05-09 08:02:00,
2013-05-09 03:11:00,60.0,57.0,29.86,North,360,0.0,1.0,90,0.00,,,0.15,,2013-05-09 08:11:00,
2013-05-09 03:21:00,60.0,57.0,29.86,North,360,0.0,1.0,90,0.00,,,0.15,,2013-05-09 08:21:00,
2013-05-09 03:31:00,60.0,57.0,29.86,North,360,0.0,1.0,90,0.00,,,0.15,,2013-05-09 08:31:00,
2013-05-09 03:42:00,60.0,57.0,29.85,North,360,0.0,0.0,90,0.00,,,0.15,,2013-05-09 08:42:00,
2013-05-09 03:52:00,60.0,57.0,29.85,North,360,0.0,0.0,90,0.00,,,0.15,,2013-05-09 08:52:00,
2013-05-09 04:02:00,60.0,57.0,29.85,North,360,0.0,0.0,90,0.00,,,0.15,,2013-05-09 09:02:00,
2013-05-09 04:11:00,60.0,57.0,29.86,North,360,0.0,0.0,90,0.00,,,0.15,,2013-05-09 09:11:00,
2013-05-09 04:21:00,60.0,57.0,29.86,North,360,0.0,0.0,90,0.00,,,0.15,,2013-05-09 09:21:00,
2013-05-09 04:32:00,60.0,57.0,29.86,North,360,0.0,0.0,90,0.00,,,0.15,,2013-05-09 09:32:00,
2013-05-09 04:43:00,60.0,57.0,29.84,North,360,0.0,0.0,90,0.00,,,0.15,,2013-05-09 09:43:00,
2013-05-09 04:53:00,60.0,57.0,29.84,North,360,0.0,0.0,90,0.00,,,0.15,,2013-05-09 09:53:00,
2013-05-09 05:02:00,60.0,57.0,29.84,North,360,0.0,0.0,90,0.00,,,0.15,,2013-05-09 10:02:00,
2013-05-09 05:12:00,60.0,57.0,29.82,East,97,0.0,0.0,90,0.00,,,0.13,,2013-05-09 10:12:00,
2013-05-09 05:22:00,60.0,57.0,29.82,East,97,0.0,0.0,90,0.00,,,0.13,,2013-05-09 10:22:00,
2013-05-09 05:33:00,60.0,57.0,29.82,East,97,0.0,0.0,90,0.00,,,0.13,,2013-05-09 10:33:00,
2013-05-09 05:42:00,60.0,57.0,29.81,North,360,0.0,0.0,90,0.00,,,0.13,,2013-05-09 10:42:00,
2013-05-09 05:52:00,60.0,57.0,29.81,North,360,0.0,0.0,90,0.00,,,0.13,,2013-05-09 10:52:00,
2013-05-09 06:02:00,60.0,57.0,29.81,North,360,0.0,0.0,90,0.00,,,0.13,,2013-05-09 11:02:00,
2013-05-09 06:12:00,60.0,57.0,29.82,North,360,0.0,1.0,90,0.00,,,0.13,,2013-05-09 11:12:00,
2013-05-09 06:22:00,60.0,57.0,29.82,North,360,0.0,1.0,90,0.00,,,0.13,,2013-05-09 11:22:00,
2013-05-09 06:32:00,60.0,57.0,29.82,North,360,0.0,1.0,90,0.00,,,0.13,,2013-05-09 11:32:00,
2013-05-09 06:42:00,59.0,56.0,29.83,North,360,0.0,0.0,90,0.00,,,0.13,,2013-05-09 11:42:00,
2013-05-09 06:52:00,59.0,56.0,29.83,North,360,0.0,0.0,90,0.00,,,0.13,,2013-05-09 11:52:00,
2013-05-09 07:01:00,59.0,56.0,29.83,North,360,0.0,0.0,90,0.00,,,0.13,,2013-05-09 12:01:00,
2013-05-09 07:11:00,59.0,56.0,29.82,East,97,1.0,1.0,90,0.00,,,0.09,,2013-05-09 12:11:00,
2013-05-09 07:22:00,59.0,56.0,29.82,East,97,1.0,1.0,90,0.00,,,0.09,,2013-05-09 12:22:00,
2013-05-09 07:31:00,59.0,56.0,29.82,East,97,1.0,1.0,90,0.00,,,0.09,,2013-05-09 12:31:00,
2013-05-09 07:42:00,60.0,57.0,29.82,North,360,0.0,0.0,90,0.00,,,0.09,,2013-05-09 12:42:00,
2013-05-09 07:52:00,60.0,57.0,29.82,North,360,0.0,0.0,90,0.00,,,0.09,,2013-05-09 12:52:00,
2013-05-09 08:01:00,60.0,57.0,29.82,North,360,0.0,0.0,90,0.00,,,0.09,,2013-05-09 13:01:00,
2013-05-09 08:12:00,60.0,57.0,29.83,North,360,0.0,0.0,90,0.00,,,0.09,,2013-05-09 13:12:00,
2013-05-09 08:21:00,60.0,57.0,29.83,North,360,0.0,0.0,90,0.00,,,0.09,,2013-05-09 13:21:00,
2013-05-09 08:32:00,60.0,57.0,29.83,North,360,0.0,0.0,90,0.00,,,0.09,,2013-05-09 13:32:00,
2013-05-09 08:42:00,60.0,57.0,29.85,East,97,0.0,1.0,90,0.00,,,0.08,,2013-05-09 13:42:00,
2013-05-09 08:52:00,60.0,57.0,29.85,East,97,0.0,1.0,90,0.00,,,0.08,,2013-05-09 13:52:00,
2013-05-09 09:01:00,60.0,57.0,29.85,East,97,0.0,1.0,90,0.00,,,0.08,,2013-05-09 14:01:00,
2013-05-09 09:11:00,61.0,58.0,29.85,ESE,113,1.0,1.0,90,0.00,,,0.08,,2013-05-09 14:11:00,
2013-05-09 09:21:00,61.0,58.0,29.85,ESE,113,1.0,1.0,90,0.00,,,0.08,,2013-05-09 14:21:00,
2013-05-09 09:32:00,61.0,58.0,29.85,ESE,113,1.0,1.0,90,0.00,,,0.08,,2013-05-09 14:32:00,
2013-05-09 09:42:00,62.0,59.0,29.86,North,360,0.0,2.0,90,0.00,,,0.08,,2013-05-09 14:42:00,
2013-05-09 09:52:00,62.0,59.0,29.86,North,360,0.0,2.0,90,0.00,,,0.08,,2013-05-09 14:52:00,
2013-05-09 10:01:00,62.0,59.0,29.86,North,360,0.0,2.0,90,0.00,,,0.08,,2013-05-09 15:01:00,
2013-05-09 10:11:00,62.0,59.0,29.85,SSE,152,1.0,2.0,90,0.00,,,0.08,,2013-05-09 15:11:00,
2013-05-09 10:22:00,62.0,59.0,29.85,SSE,152,1.0,2.0,90,0.00,,,0.08,,2013-05-09 15:22:00,
2013-05-09 10:33:00,62.0,59.0,29.85,SSE,152,1.0,2.0,90,0.00,,,0.08,,2013-05-09 15:33:00,
2013-05-09 10:43:00,64.0,61.0,29.85,SSW,205,1.0,2.0,90,0.00,,,0.08,,2013-05-09 15:43:00,
2013-05-09 10:53:00,64.0,61.0,29.85,SSW,205,1.0,2.0,90,0.00,,,0.08,,2013-05-09 15:53:00,
2013-05-09 11:03:00,64.0,61.0,29.85,SSW,205,1.0,2.0,90,0.00,,,0.08,,2013-05-09 16:03:00,
2013-05-09 11:12:00,67.0,62.0,29.86,WSW,246,3.0,4.0,84,0.00,,,0.08,,2013-05-09 16:12:00,
2013-05-09 11:22:00,67.0,62.0,29.86,WSW,246,3.0,4.0,84,0.00,,,0.08,,2013-05-09 16:22:00,
2013-05-09 11:33:00,67.0,62.0,29.86,WSW,246,3.0,4.0,84,0.00,,,0.08,,2013-05-09 16:33:00,
2013-05-09 11:42:00,70.0,62.0,29.86,SSW,196,3.0,3.0,75,0.00,,,0.08,,2013-05-09 16:42:00,
2013-05-09 11:53:00,70.0,62.0,29.86,SSW,196,3.0,3.0,75,0.00,,,0.08,,2013-05-09 16:53:00,
2013-05-09 12:02:00,70.0,62.0,29.86,SSW,196,3.0,3.0,75,0.00,,,0.08,,2013-05-09 17:02:00,
2013-05-09 12:12:00,70.0,62.0,29.86,SSW,196,3.0,3.0,75,0.00,,,0.08,,2013-05-09 17:12:00,
2013-05-09 12:21:00,71.0,58.0,29.85,South,185,2.0,3.0,64,0.00,,,0.08,,2013-05-09 17:21:00,
2013-05-09 12:32:00,71.0,58.0,29.85,South,185,2.0,3.0,64,0.00,,,0.08,,2013-05-09 17:32:00,
2013-05-09 12:42:00,72.0,60.0,29.86,South,188,1.0,2.0,66,0.00,,,0.08,,2013-05-09 17:42:00,
2013-05-09 12:55:00,72.0,60.0,29.86,South,188,1.0,2.0,66,0.00,,,0.08,,2013-05-09 17:55:00,
2013-05-09 13:01:00,72.0,60.0,29.86,South,188,1.0,2.0,66,0.00,,,0.08,,2013-05-09 18:01:00,
2013-05-09 13:12:00,72.0,57.0,29.85,West,263,2.0,3.0,60,0.00,,,0.08,,2013-05-09 18:12:00,
2013-05-09 13:21:00,72.0,57.0,29.85,West,263,2.0,3.0,60,0.00,,,0.08,,2013-05-09 18:21:00,
2013-05-09 13:31:00,72.0,57.0,29.85,West,263,2.0,3.0,60,0.00,,,0.08,,2013-05-09 18:31:00,
2013-05-09 13:42:00,72.0,57.0,29.86,West,261,3.0,4.0,60,0.00,,,0.08,,2013-05-09 18:42:00,
2013-05-09 13:52:00,72.0,57.0,29.86,West,261,3.0,4.0,60,0.00,,,0.08,,2013-05-09 18:52:00,
2013-05-09 14:01:00,72.0,57.0,29.86,West,261,3.0,4.0,60,0.00,,,0.08,,2013-05-09 19:01:00,
2013-05-09 14:12:00,72.0,57.0,29.86,West,261,3.0,4.0,60,0.00,,,0.08,,2013-05-09 19:12:00,
2013-05-09 14:21:00,72.0,58.0,29.85,NW,305,4.0,4.0,61,0.00,,,0.08,,2013-05-09 19:21:00,
2013-05-09 14:31:00,72.0,58.0,29.85,NW,305,4.0,4.0,61,0.00,,,0.08,,2013-05-09 19:31:00,
2013-05-09 14:42:00,72.0,59.0,29.85,West,267,2.0,2.0,64,0.00,,,0.08,,2013-05-09 19:42:00,
2013-05-09 14:52:00,72.0,59.0,29.85,West,267,2.0,2.0,64,0.00,,,0.08,,2013-05-09 19:52:00,
2013-05-09 15:01:00,72.0,59.0,29.85,West,267,2.0,2.0,64,0.00,,,0.08,,2013-05-09 20:01:00,
2013-05-09 15:11:00,74.0,59.0,29.84,South,190,3.0,5.0,59,0.00,,,0.08,,2013-05-09 20:11:00,
2013-05-09 15:22:00,74.0,59.0,29.84,South,190,3.0,5.0,59,0.00,,,0.08,,2013-05-09 20:22:00,
2013-05-09 15:32:00,74.0,59.0,29.84,South,190,3.0,5.0,59,0.00,,,0.08,,2013-05-09 20:32:00,
2013-05-09 15:42:00,71.0,59.0,29.84,NW,311,2.0,3.0,65,0.00,,,0.08,,2013-05-09 20:42:00,
2013-05-09 15:52:00,71.0,59.0,29.84,NW,311,2.0,3.0,65,0.00,,,0.08,,2013-05-09 20:52:00,
2013-05-09 16:01:00,71.0,59.0,29.84,NW,311,2.0,3.0,65,0.00,,,0.08,,2013-05-09 21:01:00,
2013-05-09 16:12:00,70.0,58.0,29.85,WNW,285,0.0,3.0,66,0.00,,,0.08,,2013-05-09 21:12:00,
2013-05-09 16:22:00,70.0,58.0,29.85,WNW,285,0.0,3.0,66,0.00,,,0.08,,2013-05-09 21:22:00,
2013-05-09 16:32:00,70.0,58.0,29.85,WNW,285,0.0,3.0,66,0.00,,,0.08,,2013-05-09 21:32:00,
2013-05-09 16:43:00,70.0,59.0,29.85,North,350,3.0,4.0,69,0.00,,,0.08,,2013-05-09 21:43:00,
2013-05-09 16:53:00,70.0,59.0,29.85,North,350,3.0,4.0,69,0.00,,,0.08,,2013-05-09 21:53:00,
2013-05-09 17:03:00,70.0,59.0,29.85,North,350,3.0,4.0,69,0.00,,,0.08,,2013-05-09 22:03:00,
2013-05-09 17:13:00,70.0,60.0,29.85,NNW,340,2.0,4.0,70,0.00,,,0.08,,2013-05-09 22:13:00,
2013-05-09 17:22:00,70.0,60.0,29.85,NNW,340,2.0,4.0,70,0.00,,,0.08,,2013-05-09 22:22:00,
2013-05-09 17:33:00,70.0,60.0,29.85,NNW,340,2.0,4.0,70,0.00,,,0.08,,2013-05-09 22:33:00,
2013-05-09 17:42:00,69.0,59.0,29.85,NNW,338,3.0,4.0,70,0.00,,,0.08,,2013-05-09 22:42:00,
2013-05-09 17:52:00,69.0,59.0,29.85,NNW,338,3.0,4.0,70,0.00,,,0.08,,2013-05-09 22:52:00,
2013-05-09 18:02:00,69.0,59.0,29.85,NNW,338,3.0,4.0,70,0.00,,,0.08,,2013-05-09 23:02:00,
2013-05-09 18:12:00,68.0,60.0,29.85,WSW,244,0.0,5.0,76,0.02,,,0.10,,2013-05-09 23:12:00,
2013-05-09 18:21:00,68.0,60.0,29.85,WSW,244,0.0,5.0,76,0.02,,,0.10,,2013-05-09 23:21:00,
2013-05-09 18:32:00,68.0,60.0,29.85,WSW,244,0.0,5.0,76,0.02,,,0.10,,2013-05-09 23:32:00,
2013-05-09 18:42:00,65.0,61.0,29.85,NNW,346,1.0,3.0,86,0.10,,,0.18,,2013-05-09 23:42:00,
2013-05-09 18:52:00,65.0,61.0,29.85,NNW,346,1.0,3.0,86,0.10,,,0.18,,2013-05-09 23:52:00,
2013-05-09 19:01:00,65.0,61.0,29.85,NNW,346,1.0,3.0,86,0.10,,,0.18,,2013-05-10 00:01:00,
2013-05-09 19:11:00,66.0,62.0,29.85,North,360,0.0,0.0,88,0.07,,,0.18,,2013-05-10 00:11:00,
2013-05-09 19:22:00,66.0,62.0,29.85,North,360,0.0,0.0,88,0.07,,,0.18,,2013-05-10 00:22:00,
2013-05-09 19:32:00,66.0,62.0,29.85,North,360,0.0,0.0,88,0.07,,,0.18,,2013-05-10 00:32:00,
2013-05-09 19:42:00,65.0,62.0,29.85,North,360,0.0,1.0,89,0.00,,,0.18,,2013-05-10 00:42:00,
2013-05-09 19:52:00,65.0,62.0,29.85,North,360,0.0,1.0,89,0.00,,,0.18,,2013-05-10 00:52:00,
2013-05-09 20:01:00,65.0,62.0,29.85,North,360,0.0,1.0,89,0.00,,,0.18,,2013-05-10 01:01:00,
2013-05-09 20:11:00,65.0,62.0,29.85,North,360,0.0,1.0,89,0.00,,,0.18,,2013-05-10 01:11:00,
2013-05-09 20:21:00,65.0,62.0,29.85,North,360,0.0,1.0,89,0.00,,,0.18,,2013-05-10 01:21:00,
2013-05-09 20:31:00,65.0,62.0,29.85,North,360,0.0,1.0,89,0.00,,,0.18,,2013-05-10 01:31:00,
2013-05-09 21:11:00,62.0,58.0,29.87,North,360,0.0,0.0,88,0.00,,,0.15,,2013-05-10 02:11:00,
2013-05-09 21:21:00,62.0,58.0,29.87,North,360,0.0,0.0,88,0.00,,,0.15,,2013-05-10 02:21:00,
2013-05-09 21:32:00,62.0,58.0,29.87,North,360,0.0,0.0,88,0.00,,,0.15,,2013-05-10 02:32:00,
2013-05-09 21:42:00,62.0,58.0,29.88,North,360,0.0,1.0,87,0.00,,,0.15,,2013-05-10 02:42:00,
2013-05-09 21:52:00,62.0,58.0,29.88,North,360,0.0,1.0,87,0.00,,,0.15,,2013-05-10 02:52:00,
2013-05-09 22:01:00,62.0,58.0,29.88,North,360,0.0,1.0,87,0.00,,,0.15,,2013-05-10 03:01:00,
2013-05-09 22:11:00,62.0,58.0,29.87,North,360,0.0,0.0,86,0.00,,,0.14,,2013-05-10 03:11:00,
2013-05-09 22:21:00,62.0,58.0,29.87,North,360,0.0,0.0,86,0.00,,,0.14,,2013-05-10 03:21:00,
2013-05-09 22:32:00,62.0,58.0,29.87,North,360,0.0,0.0,86,0.00,,,0.14,,2013-05-10 03:32:00,
2013-05-09 22:43:00,61.0,57.0,29.89,North,360,0.0,0.0,87,0.00,,,0.12,,2013-05-10 03:43:00,
2013-05-09 22:53:00,61.0,57.0,29.89,North,360,0.0,0.0,87,0.00,,,0.12,,2013-05-10 03:53:00,
2013-05-09 23:03:00,61.0,57.0,29.89,North,360,0.0,0.0,87,0.00,,,0.12,,2013-05-10 04:03:00,
2013-05-09 23:12:00,60.0,56.0,29.90,North,360,0.0,0.0,88,0.00,,,0.08,,2013-05-10 04:12:00,
2013-05-09 23:23:00,60.0,56.0,29.90,North,360,0.0,0.0,88,0.00,,,0.08,,2013-05-10 04:23:00,
2013-05-09 23:33:00,60.0,56.0,29.90,North,360,0.0,0.0,88,0.00,,,0.08,,2013-05-10 04:33:00,
2013-05-09 23:43:00,60.0,57.0,29.90,North,360,0.0,0.0,90,0.00,,,0.07,,2013-05-10 04:43:00,
2013-05-09 23:53:00,60.0,57.0,29.90,North,360,0.0,0.0,90,0.00,,,0.07,,2013-05-10 04:53:00,